Location: Newark
(11.2914°S, 14.4718°E)
Time: 12:05:44
(UTC+00:00)

Courier 1B - Visible Passes

Search period start: 16 September 2019 00:00
Search period end: 26 September 2019 00:00
Orbit: 962 x 1209 km, 28.3° (Epoch: 15 September)

Date Brightness Start Highest point End Pass type
(mag) Time Alt. Az. Time Alt. Az. Time Alt. Az.
16 Sep 9.1 02:34:13 26° NNE 02:34:13 26° NNE 02:37:16 10° NE visible
16 Sep 9.5 04:23:30 10° NW 04:25:12 11° NNW 04:26:55 10° NNW visible
16 Sep 8.9 17:50:43 10° W 17:57:12 34° SSW 18:03:21 10° SE visible
16 Sep 9.8 19:47:53 10° SW 19:50:16 16° SSW 19:50:16 16° SSW visible
17 Sep 9.2 03:31:07 16° NNW 03:31:16 16° NNW 03:35:14 10° N visible
17 Sep 9.3 18:53:09 10° WSW 18:58:18 21° S 19:00:02 19° S visible
18 Sep 9.6 02:41:04 15° N 02:41:04 15° N 02:42:30 10° NNE visible
18 Sep 9.3 17:58:21 10° WSW 18:04:08 24° SSW 18:09:39 10° SE visible
18 Sep 10.0 19:55:13 10° SW 19:56:41 14° SSW 19:56:41 14° SSW visible
19 Sep 9.4 19:00:45 10° SW 19:05:30 19° S 19:06:23 18° S visible
20 Sep 9.5 18:06:04 10° SW 18:11:14 20° S 18:16:03 11° SE visible
20 Sep 10.0 20:01:57 10° SW 20:02:57 13° SSW 20:02:57 13° SSW visible
21 Sep 9.5 17:11:16 10° WSW 17:16:59 23° SSW 17:22:29 10° SE visible
21 Sep 9.4 19:07:48 10° SW 19:12:37 19° S 19:12:37 19° S visible
22 Sep 9.5 18:13:26 10° SW 18:18:29 19° S 18:22:15 13° SE visible
22 Sep 10.1 20:08:14 10° SW 20:09:09 13° SW 20:09:09 13° SW visible
23 Sep 9.6 17:18:52 10° SW 17:24:10 20° S 17:29:16 10° SE visible
23 Sep 9.3 19:14:19 10° SW 19:18:48 23° S 19:18:48 23° S visible
24 Sep 9.2 18:20:15 10° SW 18:25:43 22° S 18:28:26 18° SE visible
24 Sep 10.1 20:14:22 10° SW 20:15:20 14° SW 20:15:20 14° SW visible
25 Sep 9.5 17:25:59 10° SW 17:31:24 21° S 17:36:36 10° SE visible
25 Sep 9.1 19:20:31 10° SW 19:25:00 28° SSW 19:25:00 28° SSW visible
